This is the latest recevied weather packets stored in our database for station/object KF6ILA. If no packets are shown the sender has not sent any weather packets the latest 10 day(s).
| Time | Temp. | Humidity | Pressure | Rain* | Wind** | Luminosity | Snow |
|---|---|---|---|---|---|---|---|
| 1787711995 | 26.67° C | 43% | 1017.6 hPa | 0 mm | - | 0 W/m² | - |
| 1787711698 | 26.67° C | 43% | 1017.6 hPa | 0 mm | - | 0 W/m² | - |
| 1787711401 | 26.67° C | 43% | 1017.6 hPa | 0 mm | - | 0 W/m² | - |
| 1787711104 | 27.22° C | 42% | 1017.5 hPa | 0 mm | - | 0 W/m² | - |
| 1787710510 | 27.22° C | 41% | 1017.5 hPa | 0 mm | - | 9 W/m² | - |
| 1787710213 | 27.78° C | 41% | 1017.3 hPa | 0 mm | - | 12 W/m² | - |
| 1787709916 | 27.78° C | 40% | 1017.4 hPa | 0 mm | - | 16 W/m² | - |
| 1787709322 | 28.33° C | 39% | 1017.4 hPa | 0 mm | - | 28 W/m² | - |
| 1787709025 | 28.89° C | 39% | 1017.3 hPa | 0 mm | - | 37 W/m² | - |
| 1787708728 | 28.89° C | 39% | 1017.3 hPa | 0 mm | - | 49 W/m² | - |
| 1787708432 | 28.89° C | 39% | 1017.4 hPa | 0 mm | - | 62 W/m² | - |
| 1787707540 | 30° C | 37% | 1017.3 hPa | 0 mm | - | 109 W/m² | - |
| 1787707243 | 30° C | 37% | 1017.4 hPa | 0 mm | - | 132 W/m² | - |
| 1787706649 | 30° C | 35% | 1017.3 hPa | 0 mm | - | 171 W/m² | - |
| 1787706055 | 30.56° C | 35% | 1017.5 hPa | 0 mm | - | 174 W/m² | - |
| 1787705461 | 30.56° C | 35% | 1017.4 hPa | 0 mm | - | 174 W/m² | - |
| 1787705164 | 31.11° C | 34% | 1017.4 hPa | 0 mm | - | 271 W/m² | - |
| 1787704570 | 31.11° C | 34% | 1017.3 hPa | 0 mm | - | 306 W/m² | - |
| 1787703976 | 31.11° C | 34% | 1017.3 hPa | 0 mm | - | 346 W/m² | - |
| 1787703679 | 31.11° C | 34% | 1017.3 hPa | 0 mm | - | 364 W/m² | - |
| 1787703085 | 31.67° C | 33% | 1017.2 hPa | 0 mm | - | 403 W/m² | - |
| 1787702788 | 31.67° C | 33% | 1017.1 hPa | 0 mm | - | 413 W/m² | - |
| 1787701897 | 31.67° C | 33% | 1017.2 hPa | 0 mm | - | 473 W/m² | - |
| 1787701006 | 32.22° C | 33% | 1017.9 hPa | 0 mm | - | 520 W/m² | - |
| 1787700115 | 32.78° C | 32% | 1018 hPa | 0 mm | - | 563 W/m² | - |
* Rain latest hour (hover to see other rain measurements)
** Current wind speed in m/s (hover to see current wind gust speed)